Location: Thompson
(55.7500°N, 97.8670°W)
Time: 18:47:45
(UTC-05:00)

Amateur Radio Satellites - All Passes

Search period start: 05 May 2016 18:17
Search period end: 06 May 2016 18:17
Location: Thompson, 55.7500°N, 97.8670°W

Satellite Date Start Highest point End Downlink Frequencies (MHz)
Time Altitude Azimuth
PCSat 05 May 18:25:27 18:30:37 42° 329° (NNW) 18:35:49 145.827
BEESAT 2 05 May 18:26:24 18:28:16 13° 113° (ESE) 18:30:10 435.950
BEESAT 05 May 18:30:00 18:32:09 13° 315° (NW) 18:34:18 436.000
BRITE-PL 05 May 18:30:27 18:35:32 71° 70° (ENE) 18:41:03 437.365/2234.400
MOZHAYETS 4 05 May 18:30:58 18:35:24 50° 293° (WNW) 18:39:50
LilacSat-2 05 May 18:33:24 18:37:15 69° 72° (ENE) 18:41:07 437.200
CANX-2 05 May 18:33:35 18:34:53 11° 48° (NE) 18:36:12 2200.000
NOAA 15 05 May 18:34:06 18:39:23 75° 256° (WSW) 18:44:44 137.62
HORYU 2 05 May 18:39:46 18:42:38 17° 272° (W) 18:45:32 437.375
NOAA 18 05 May 18:41:30 18:47:00 72° 255° (WSW) 18:52:32 137.9125
CUSAT 1 05 May 18:43:26 18:45:33 12° 325° (NW) 18:47:51 437.405
CUBESAT XI-V 05 May 18:47:23 18:51:54 43° 98° (E) 18:56:24 437.345
Cubesat XI-IV 05 May 18:47:28 18:52:48 82° 253° (WSW) 18:58:11 437.490
AO-7 05 May 18:58:12 19:01:10 12° 285° (WNW) 19:04:09 29.400- 29.500
M-CUBED/EXP-1 PRIME 05 May 19:01:41 19:06:23 86° 70° (ENE) 19:10:55 437.505
CUTE 1.7 + AOD 2 05 May 19:04:02 19:06:45 17° 54° (NE) 19:09:29 437.475
DOVE 4 05 May 19:06:04 19:11:06 47° 65° (ENE) 19:16:11 437.250
AUBIESAT-1 05 May 19:17:37 19:22:15 83° 248° (WSW) 19:26:42 437.475
COMPASS 1 05 May 19:23:16 19:25:39 15° 53° (NE) 19:28:02 437.405
SEEDS 05 May 19:25:07 19:28:06 19° 56° (ENE) 19:31:05 437.485
O/OREOS (USA 219) 05 May 19:25:49 19:27:23 11° 348° (NNW) 19:28:57 437.305
GOMX 1 05 May 19:25:49 19:31:05 81° 256° (WSW) 19:36:37 467.674
CINEMA 3 05 May 19:26:49 19:31:10 30° 60° (ENE) 19:35:27 145.822/145.860
Cosmos 2504 05 May 19:27:33 19:32:26 20° 75° (ENE) 19:37:21 435.465 / 435.565
Cosmos 2491 05 May 19:32:43 19:41:02 48° 273° (W) 19:49:16 435.465 / 435.565
UWE-3 05 May 19:40:24 19:42:35 13° 50° (NE) 19:44:45 435.000/436.395/437.385
CUTE-I 05 May 19:42:49 19:47:39 35° 265° (W) 19:52:31 437.470
KKS-1 05 May 19:43:02 19:45:11 13° 312° (NW) 19:47:18 437.445
STRAND 1 05 May 19:45:14 19:48:58 20° 88° (E) 19:52:41 437.568
BEESAT 3 05 May 19:47:54 19:51:51 78° 135° (SE) 19:55:51 437.485
AAUSAT CUBESAT 2 05 May 19:50:03 19:53:05 20° 57° (ENE) 19:56:07 437.432
HO-68 05 May 19:50:17 19:57:19 63° 63° (ENE) 20:04:23 435.675
STARS 05 May 19:50:24 19:53:15 17° 308° (NW) 19:56:04 437.465
YUBILEINY 05 May 19:51:12 19:59:56 83° 98° (E) 20:08:41 435.215
AO-85 05 May 19:51:38 19:56:43 60° 34° (NE) 20:01:21 145.980
CUBEBUG 2 05 May 19:53:13 19:56:40 21° 56° (NE) 20:00:04 437.445
BEESAT 2 05 May 20:01:28 20:05:26 69° 133° (SE) 20:09:26 435.950
ZACube-1 05 May 20:03:23 20:05:48 15° 51° (NE) 20:08:11 437.345
CANX-2 05 May 20:05:48 20:09:54 54° 69° (ENE) 20:14:02 2200.000
LilacSat-2 05 May 20:09:31 20:12:01 16° 272° (W) 20:14:31 437.200
MOZHAYETS 4 05 May 20:10:01 20:11:37 12° 314° (NW) 20:13:14
BRITE-PL 05 May 20:10:24 20:14:36 25° 273° (W) 20:19:02 437.365/2234.400
PCSat 05 May 20:10:49 20:15:19 26° 354° (N) 20:19:51 145.827
NOAA 15 05 May 20:17:03 20:20:07 15° 276° (W) 20:23:12 137.62
AIST 2 05 May 20:23:49 20:26:23 16° 115° (ESE) 20:28:57 435.215
CUBESAT XI-V 05 May 20:24:59 20:29:14 35° 298° (WNW) 20:33:30 437.345
NOAA 18 05 May 20:25:31 20:28:40 15° 276° (W) 20:31:51 137.9125
Cubesat XI-IV 05 May 20:30:17 20:33:44 17° 274° (W) 20:37:12 437.490
Oscar 11 05 May 20:37:29 20:41:05 26° 60° (ENE) 20:44:40 145.826/435.025
DELFI C3 05 May 20:37:44 20:39:58 15° 54° (NE) 20:42:13 145.870
CUTE 1.7 + AOD 2 05 May 20:37:51 20:42:05 89° 253° (WSW) 20:46:19 437.475
M-CUBED/EXP-1 PRIME 05 May 20:38:13 20:41:27 18° 265° (W) 20:44:37 437.505
DOVE 4 05 May 20:44:02 20:48:54 38° 266° (W) 20:53:52 437.250
FUNcube-1 05 May 20:53:32 20:57:25 30° 62° (ENE) 21:01:15 145.935
AUBIESAT-1 05 May 20:54:36 20:57:19 15° 266° (W) 21:00:00 437.475
COMPASS 1 05 May 20:56:28 21:00:36 81° 73° (ENE) 21:04:47 437.405
SEEDS 05 May 20:59:13 21:03:23 74° 257° (WSW) 21:07:35 437.485
CINEMA 3 05 May 21:03:07 21:08:05 58° 260° (W) 21:12:59 145.822/145.860
GOMX 1 05 May 21:06:37 21:10:04 17° 277° (W) 21:13:38 467.674
O/OREOS (USA 219) 05 May 21:07:05 21:08:55 12° 15° (NNE) 21:10:44 437.305
RS-15 05 May 21:10:29 21:19:51 31° 104° (ESE) 21:29:35 29.354- 29.394
UWE-3 05 May 21:13:45 21:18:16 61° 70° (ENE) 21:22:42 435.000/436.395/437.385
Cosmos 2504 05 May 21:17:29 21:24:39 79° 98° (E) 21:31:54 435.465 / 435.565
STRAND 1 05 May 21:23:40 21:28:48 83° 289° (WNW) 21:33:56 437.568
AAUSAT CUBESAT 2 05 May 21:24:06 21:28:12 68° 257° (WSW) 21:32:20 437.432
BEESAT 3 05 May 21:26:21 21:29:57 31° 337° (NNW) 21:33:33 437.485
CUBEBUG 2 05 May 21:28:09 21:32:51 80° 255° (WSW) 21:37:27 437.445
Cosmos 2491 05 May 21:32:00 21:35:32 13° 298° (WNW) 21:39:04 435.465 / 435.565
AO-85 05 May 21:32:29 21:37:04 38° 237° (WSW) 21:41:16 145.980
ZACube-1 05 May 21:36:57 21:41:24 70° 72° (ENE) 21:45:47 437.345
ESTCUBE 1 05 May 21:38:36 21:39:38 11° 44° (NE) 21:40:39 437.505/2401.250
HO-68 05 May 21:38:50 21:45:27 39° 265° (W) 21:52:06 435.675
BEESAT 2 05 May 21:39:55 21:43:36 34° 335° (NNW) 21:47:18 435.950
CANX-2 05 May 21:42:42 21:46:05 23° 269° (W) 21:49:29 2200.000
YUBILEINY 05 May 21:50:04 21:57:48 34° 304° (NW) 22:05:35 435.215
PCSat 05 May 21:55:26 22:00:16 31° 20° (NNE) 22:05:04 145.827
DX 1 05 May 21:55:45 21:56:31 10° 44° (NE) 21:57:16 434.975-435.025
PRISM 05 May 21:56:28 22:00:36 57° 102° (ESE) 22:04:43 437.425
AIST 2 05 May 22:00:07 22:04:16 80° 135° (SE) 22:08:26 435.215
VELOX 1 05 May 22:08:43 22:11:00 14° 49° (NE) 22:13:17 145.980
DELFI C3 05 May 22:10:20 22:14:17 85° 74° (ENE) 22:18:16 145.870
HUMSAT D 05 May 22:11:36 22:15:37 47° 67° (ENE) 22:19:36 437.325/437.525
Oscar 11 05 May 22:12:47 22:17:00 53° 260° (W) 22:21:15 145.826/435.025
CUTE 1.7 + AOD 2 05 May 22:16:22 22:18:36 14° 275° (W) 22:20:49 437.475
FUNcube-1 05 May 22:29:17 22:33:34 45° 261° (W) 22:37:48 145.935
ANTELSAT 05 May 22:32:10 22:33:06 11° 82° (E) 22:34:02 437.575/2403.000
COMPASS 1 05 May 22:34:17 22:36:46 15° 273° (W) 22:39:15 437.405
SEEDS 05 May 22:38:30 22:39:53 11° 277° (W) 22:41:18 437.485
AISAT 05 May 22:39:44 22:43:14 23° 56° (NE) 22:46:45 437.250
50 SAT 05 May 22:44:05 22:46:47 20° 59° (ENE) 22:49:28 437.505
CINEMA 3 05 May 22:44:49 22:46:15 11° 280° (W) 22:47:41 145.822/145.860
O/OREOS (USA 219) 05 May 22:46:00 22:49:55 27° 39° (NE) 22:53:46 437.305
UWE-3 05 May 22:51:27 22:55:06 23° 269° (W) 22:58:42 435.000/436.395/437.385
STRAND 1 05 May 23:03:41 23:07:21 20° 309° (NW) 23:11:00 437.568
AAUSAT CUBESAT 2 05 May 23:03:52 23:04:32 10° 277° (W) 23:05:12 437.432
BEESAT 3 05 May 23:05:30 23:08:39 22° 1° (N) 23:11:48 437.485
CUBEBUG 1 05 May 23:06:23 23:10:19 32° 62° (ENE) 23:14:16 437.445
CUBEBUG 2 05 May 23:07:40 23:10:12 14° 275° (W) 23:12:43 437.445
ESTCUBE 1 05 May 23:11:09 23:15:26 45° 65° (ENE) 23:19:45 437.505/2401.250
Cosmos 2504 05 May 23:12:44 23:18:54 30° 304° (WNW) 23:25:11 435.465 / 435.565
ZACube-1 05 May 23:14:53 23:18:09 20° 271° (W) 23:21:24 437.345
RS-15 05 May 23:19:05 23:30:33 79° 131° (SE) 23:42:42 29.354- 29.394
BEESAT 2 05 May 23:19:14 23:22:26 22° 359° (N) 23:25:38 435.950
UNISAT 6 05 May 23:24:29 23:28:20 29° 94° (E) 23:32:06 437.425
DX 1 05 May 23:27:33 23:31:43 44° 65° (ENE) 23:35:55 434.975-435.025
UKube-1 05 May 23:27:49 23:31:50 38° 63° (ENE) 23:35:53 .
PRISM 05 May 23:32:17 23:35:40 24° 302° (WNW) 23:39:01 437.425
PCSat 05 May 23:39:03 23:44:31 72° 44° (NE) 23:49:57 145.827
AIST 2 05 May 23:39:22 23:43:09 33° 338° (NNW) 23:46:57 435.215
TIGRISAT 05 May 23:40:42 23:44:47 38° 97° (E) 23:48:47 435.000
VELOX 1 05 May 23:42:16 23:46:41 63° 69° (ENE) 23:51:07 145.980
GONETS M04 05 May 23:42:21 23:49:18 27° 76° (ENE) 23:56:15
DELFI C3 05 May 23:47:42 23:49:45 14° 274° (W) 23:51:50 145.870
HUMSAT D 05 May 23:47:56 23:51:27 26° 267° (W) 23:54:59 437.325/437.525
SPROUT 05 May 23:51:23 23:55:19 35° 63° (ENE) 23:59:17 437.525
YUBILEINY 05 May 23:54:07 23:58:12 14° 335° (NNW) 00:02:18 435.215
CUSAT 1 05 May 23:57:10 00:02:11 21° 48° (NE) 00:07:43 437.405
NANOSAT C BR1 06 May 00:01:28 00:04:13 17° 88° (E) 00:06:56 145.865
ANTELSAT 06 May 00:06:24 00:10:46 67° 104° (ESE) 00:15:01 437.575/2403.000
TISAT 1 06 May 00:13:18 00:16:39 23° 58° (ENE) 00:20:01 437.305
AISAT 06 May 00:14:53 00:19:21 69° 257° (WSW) 00:23:51 437.250
AIST 1 06 May 00:15:33 00:19:11 26° 88° (E) 00:22:50
50 SAT 06 May 00:16:42 00:20:17 55° 258° (WSW) 00:23:54 437.505
SWISSCUBE 06 May 00:20:11 00:21:49 12° 43° (NE) 00:23:27 437.505
O/OREOS (USA 219) 06 May 00:25:14 00:29:47 72° 242° (WSW) 00:34:16 437.305
CUBEBUG 1 06 May 00:42:19 00:46:32 43° 262° (W) 00:50:48 437.445
BEESAT 3 06 May 00:43:43 00:47:20 33° 24° (NNE) 00:50:58 437.485
ESTCUBE 1 06 May 00:48:26 00:52:25 31° 266° (W) 00:56:27 437.505/2401.250
BEESAT 06 May 00:51:11 00:54:13 17° 50° (NE) 00:57:15 436.000
DUCHIFAT 1 06 May 00:51:25 00:55:27 41° 98° (E) 00:59:26 145.980
QB50P2 06 May 00:56:39 01:00:50 51° 100° (E) 01:04:58 145.880/145.840
BEESAT 2 06 May 00:57:41 01:01:18 31° 22° (NNE) 01:04:54 435.950
POLYITAN 1 06 May 00:58:52 01:03:03 52° 101° (E) 01:07:10 437.675
POPSAT HIP 1 06 May 01:00:30 01:04:42 52° 101° (E) 01:08:49 437.405
UNISAT 6 06 May 01:01:05 01:05:14 43° 294° (WNW) 01:09:18 437.425
QB50P1 06 May 01:03:23 01:07:35 56° 101° (E) 01:11:45 145.935-145.965
UKube-1 06 May 01:04:00 01:07:58 34° 264° (W) 01:11:58 .
DX 1 06 May 01:04:12 01:08:04 30° 265° (W) 01:11:59 434.975-435.025
DANDE 06 May 01:10:52 01:16:06 27° 57° (ENE) 01:22:21 436.750
Cosmos 2499 06 May 01:13:54 01:20:24 42° 87° (E) 01:27:05 435.465 / 435.565
Cosmos 2504 06 May 01:14:17 01:15:26 10° 334° (NNW) 01:16:35 435.465 / 435.565
TIGRISAT 06 May 01:17:32 01:21:29 34° 298° (WNW) 01:25:21 435.000
BUGSAT 1 06 May 01:18:43 01:22:43 40° 98° (E) 01:26:38 437.445
AIST 2 06 May 01:19:18 01:22:40 23° 1° (N) 01:26:02 435.215
VELOX 1 06 May 01:20:05 01:23:34 22° 269° (W) 01:27:05 145.980
JAS-2 06 May 01:21:19 01:27:48 28° 86° (E) 01:34:18 435.910
PCSat 06 May 01:22:52 01:27:34 31° 245° (WSW) 01:32:16 145.827
SPROUT 06 May 01:27:14 01:31:17 38° 263° (W) 01:35:21 437.525
RS-15 06 May 01:32:17 01:43:55 62° 342° (NNW) 01:56:07 29.354- 29.394
GONETS M04 06 May 01:36:09 01:45:02 87° 100° (E) 01:53:55
NANOSAT C BR1 06 May 01:36:14 01:40:30 78° 288° (WNW) 01:44:43 145.865
CUSAT 1 06 May 01:38:44 01:45:40 60° 69° (ENE) 01:53:35 437.405
ANTELSAT 06 May 01:43:45 01:47:07 22° 303° (WNW) 01:50:25 437.575/2403.000
ITUPSAT 1 06 May 01:46:45 01:51:07 38° 62° (ENE) 01:55:31 437.325
TISAT 1 06 May 01:47:46 01:52:00 63° 258° (WSW) 01:56:15 437.305
AIST 1 06 May 01:52:22 01:56:34 47° 289° (WNW) 02:00:50
SWISSCUBE 06 May 01:54:03 01:58:34 46° 65° (ENE) 02:03:08 437.505
AISAT 06 May 01:55:06 01:56:42 12° 277° (W) 01:58:20 437.250
YUBILEINY 06 May 01:58:17 02:00:23 11° 11° (N) 02:02:29 435.215
KKS-1 06 May 02:00:37 02:02:25 12° 46° (NE) 02:04:12 437.445
O/OREOS (USA 219) 06 May 02:06:22 02:08:22 13° 262° (W) 02:10:22 437.305
BEESAT 3 06 May 02:21:25 02:25:23 72° 226° (SW) 02:29:19 437.485
BEESAT 06 May 02:26:34 02:31:19 75° 70° (ENE) 02:36:05 436.000
DUCHIFAT 1 06 May 02:27:19 02:31:06 31° 298° (WNW) 02:34:49 145.980
MOZHAYETS 4 06 May 02:28:44 02:31:02 14° 49° (NE) 02:33:19
QB50P2 06 May 02:32:53 02:36:26 26° 301° (WNW) 02:39:59 145.880/145.840
POLYITAN 1 06 May 02:35:06 02:38:39 26° 301° (WNW) 02:42:09 437.675
BEESAT 2 06 May 02:35:32 02:39:34 82° 222° (SW) 02:43:33 435.950
POPSAT HIP 1 06 May 02:36:44 02:40:16 26° 301° (WNW) 02:43:46 437.405
QB50P1 06 May 02:39:39 02:43:07 24° 301° (WNW) 02:46:33 145.935-145.965
Oscar 19 06 May 02:49:51 02:54:55 48° 99° (E) 02:59:56 437.125/150
DANDE 06 May 02:53:16 02:59:38 88° 78° (ENE) 03:07:35 436.750
BUGSAT 1 06 May 02:54:17 02:58:03 32° 298° (WNW) 03:01:46 437.445
AIST 2 06 May 02:58:18 03:02:09 35° 25° (NNE) 03:06:00 435.215
JAS-2 06 May 03:05:56 03:13:44 88° 107° (ESE) 03:21:38 435.910
Cosmos 2499 06 May 03:06:32 03:13:24 53° 292° (WNW) 03:20:33 435.465 / 435.565
Gurwin Techsat 1B 06 May 03:12:55 03:17:50 36° 95° (E) 03:22:42 435.225
NANOSAT C BR1 06 May 03:13:09 03:15:36 15° 308° (NW) 03:18:04 145.865
CUSAT 1 06 May 03:21:05 03:27:45 45° 268° (W) 03:35:13 437.405
ITUPSAT 1 06 May 03:24:28 03:28:58 41° 262° (W) 03:33:30 437.325
SWISSCUBE 06 May 03:32:16 03:36:33 33° 265° (W) 03:40:51 437.505
KKS-1 06 May 03:33:42 03:38:04 52° 67° (ENE) 03:42:28 437.445
GONETS M04 06 May 03:35:18 03:43:03 33° 306° (NW) 03:50:50
STARS 06 May 03:40:53 03:44:58 37° 63° (ENE) 03:49:05 437.465
RS-15 06 May 03:46:47 03:58:39 59° 14° (NNE) 04:10:51 29.354- 29.394
YUBILEINY 06 May 03:55:09 04:01:44 23° 44° (NE) 04:08:16 435.215
BEESAT 3 06 May 04:00:24 04:02:26 14° 246° (WSW) 04:04:27 437.485
MOZHAYETS 4 06 May 04:02:53 04:07:23 62° 69° (ENE) 04:11:55
BEESAT 06 May 04:06:07 04:09:39 20° 271° (W) 04:13:12 436.000
BEESAT 2 06 May 04:14:23 04:16:51 16° 244° (WSW) 04:19:18 435.950
ITAMSAT 1 06 May 04:16:17 04:21:20 50° 100° (E) 04:26:23 435.822/435.867
CUBESAT XI-V 06 May 04:22:22 04:25:40 20° 54° (NE) 04:29:00 437.345
Oscar 19 06 May 04:29:24 04:34:11 37° 300° (WNW) 04:38:55 437.125/150
DANDE 06 May 04:36:46 04:42:05 27° 273° (W) 04:48:17 436.750
AIST 2 06 May 04:36:49 04:40:57 69° 227° (SW) 04:45:05 435.215
AO-7 06 May 04:50:17 04:58:04 41° 97° (E) 05:05:50 29.400- 29.500
JAS-2 06 May 04:51:26 04:58:04 33° 309° (NW) 05:04:50 435.910
Gurwin Techsat 1B 06 May 04:52:51 04:57:59 49° 296° (WNW) 05:03:05 435.225
Cosmos 2491 06 May 04:56:24 05:00:01 13° 62° (ENE) 05:03:38 435.465 / 435.565
Cosmos 2499 06 May 05:04:14 05:08:37 17° 319° (NW) 05:13:07 435.465 / 435.565
CUSAT 1 06 May 05:05:50 05:08:26 12° 288° (WNW) 05:11:08 437.405
Cosmos 2504 06 May 05:06:53 05:11:23 16° 41° (NE) 05:15:59 435.465 / 435.565
KKS-1 06 May 05:11:07 05:14:55 26° 267° (W) 05:18:45 437.445
STARS 06 May 05:17:13 05:21:21 37° 263° (W) 05:25:32 437.465
STRAND 1 06 May 05:32:02 05:34:53 15° 45° (NE) 05:37:45 437.568
GONETS M04 06 May 05:39:34 05:43:37 14° 337° (NNW) 05:47:40
MOZHAYETS 4 06 May 05:41:20 05:44:58 23° 269° (W) 05:48:36
YUBILEINY 06 May 05:51:56 06:00:37 64° 71° (ENE) 06:09:16 435.215
ITAMSAT 1 06 May 05:56:01 06:00:44 36° 301° (WNW) 06:05:25 435.822/435.867
CUBESAT XI-V 06 May 05:57:53 06:02:31 87° 252° (WSW) 06:07:13 437.345
RS-15 06 May 06:00:09 06:12:23 88° 225° (SW) 06:24:48 29.354- 29.394
Oscar 19 06 May 06:11:00 06:12:12 11° 322° (NW) 06:13:24 437.125/150
CUTE-I 06 May 06:13:54 06:15:11 11° 80° (E) 06:16:27 437.470
AIST 2 06 May 06:16:39 06:18:44 14° 247° (WSW) 06:20:49 435.215
HORYU 2 06 May 06:20:52 06:25:16 58° 102° (ESE) 06:29:37 437.375
BRITE-PL 06 May 06:28:17 06:32:03 18° 83° (E) 06:35:47 437.365/2234.400
SO-50 06 May 06:32:42 06:35:36 16° 112° (ESE) 06:38:31 436.795
Gurwin Techsat 1B 06 May 06:34:13 06:36:50 14° 318° (NW) 06:39:28 435.225
JAS-2 06 May 06:37:24 06:41:01 14° 332° (NNW) 06:44:42 435.910
NOAA 15 06 May 06:41:53 06:46:13 24° 90° (E) 06:50:31 137.62
AO-7 06 May 06:43:08 06:51:24 68° 300° (WNW) 06:59:39 29.400- 29.500
Cosmos 2491 06 May 06:46:15 06:54:32 48° 87° (E) 07:02:53 435.465 / 435.565
NOAA 18 06 May 06:56:05 07:00:42 27° 92° (E) 07:05:18 137.9125
Cubesat XI-IV 06 May 06:57:25 07:01:38 23° 90° (E) 07:05:49 437.490
Cosmos 2504 06 May 06:59:38 07:06:54 50° 67° (ENE) 07:14:39 435.465 / 435.565
STRAND 1 06 May 07:08:09 07:13:09 58° 67° (ENE) 07:18:11 437.568
PRISM 06 May 07:19:11 07:22:10 20° 55° (NE) 07:25:10 437.425
GOMX 1 06 May 07:20:41 07:24:58 23° 87° (E) 07:29:07 467.674
LilacSat-2 06 May 07:33:48 07:37:21 36° 97° (E) 07:40:53 437.200
CUBESAT XI-V 06 May 07:37:54 07:40:39 15° 275° (W) 07:43:24 437.345
ITAMSAT 1 06 May 07:38:01 07:38:53 10° 323° (NW) 07:39:44 435.822/435.867
GONETS M04 06 May 07:43:16 07:45:52 11° 12° (NNE) 07:48:27
YUBILEINY 06 May 07:49:11 07:57:07 42° 276° (W) 08:05:03 435.215
CUTE-I 06 May 07:51:15 07:56:29 54° 101° (E) 08:01:42 437.470
HORYU 2 06 May 07:57:55 08:01:34 26° 302° (WNW) 08:05:12 437.375
BRITE-PL 06 May 08:05:41 08:11:27 77° 104° (ESE) 08:17:06 437.365/2234.400
M-CUBED/EXP-1 PRIME 06 May 08:09:51 08:12:35 18° 95° (E) 08:15:10 437.505
SO-50 06 May 08:10:26 08:15:20 67° 133° (SE) 08:20:12 436.795
RS-15 06 May 08:13:00 08:23:42 38° 251° (WSW) 08:34:31 29.354- 29.394
CUTE 1.7 + AOD 2 06 May 08:17:48 08:18:28 10° 82° (E) 08:19:09 437.475
NOAA 15 06 May 08:21:12 08:26:32 72° 291° (WNW) 08:31:50 137.62
AUBIESAT-1 06 May 08:24:58 08:27:55 20° 97° (E) 08:30:42 437.475
ISS 06 May 08:28:43 08:31:29 25° 159° (SSE) 08:34:15 145.825
DOVE 4 06 May 08:35:05 08:40:03 43° 96° (E) 08:44:43 437.250
AO-7 06 May 08:36:20 08:42:58 28° 324° (NW) 08:49:38 29.400- 29.500
NOAA 18 06 May 08:36:24 08:41:51 67° 293° (WNW) 08:47:15 137.9125
Cubesat XI-IV 06 May 08:36:57 08:42:18 76° 291° (WNW) 08:47:37 437.490
SEEDS 06 May 08:37:12 08:38:54 12° 84° (E) 08:40:35 437.485
Cosmos 2491 06 May 08:42:40 08:51:20 57° 292° (WNW) 09:00:05 435.465 / 435.565
STRAND 1 06 May 08:48:18 08:52:41 28° 267° (W) 08:57:06 437.568
CINEMA 3 06 May 08:50:58 08:54:40 23° 89° (E) 08:58:12 145.822/145.860
PRISM 06 May 08:52:59 08:57:04 73° 255° (WSW) 09:01:14 437.425
Cosmos 2504 06 May 08:53:13 09:00:23 50° 270° (W) 09:08:04 435.465 / 435.565
UNISAT 6 06 May 08:56:12 08:58:38 14° 50° (NE) 09:01:00 437.425
HO-68 06 May 08:57:19 09:03:38 32° 92° (E) 09:09:55 435.675
GOMX 1 06 May 08:58:10 09:03:41 79° 288° (WNW) 09:08:57 467.674
AAUSAT CUBESAT 2 06 May 09:00:23 09:02:09 12° 84° (E) 09:03:56 437.432
Cosmos 2499 06 May 09:02:32 09:04:00 11° 26° (NNE) 09:05:29 435.465 / 435.565
LilacSat-2 06 May 09:08:17 09:11:38 29° 296° (WNW) 09:14:56 437.200
TIGRISAT 06 May 09:11:39 09:14:38 17° 53° (NE) 09:17:35 435.000
CUBEBUG 2 06 May 09:13:05 09:15:11 13° 84° (E) 09:17:16 437.445
CANX-2 06 May 09:19:00 09:22:59 38° 97° (E) 09:26:57 2200.000
CUTE-I 06 May 09:31:38 09:36:23 34° 302° (WNW) 09:41:08 437.470
ANTELSAT 06 May 09:36:34 09:40:20 26° 59° (ENE) 09:44:03 437.575/2403.000
GONETS M04 06 May 09:40:18 09:47:09 24° 45° (NE) 09:53:55
M-CUBED/EXP-1 PRIME 06 May 09:43:38 09:47:40 65° 296° (WNW) 09:51:21 437.505
BRITE-PL 06 May 09:44:42 09:49:27 28° 304° (NW) 09:54:10 437.365/2234.400
YUBILEINY 06 May 09:49:42 09:51:21 11° 301° (WNW) 09:53:00 435.215
CUTE 1.7 + AOD 2 06 May 09:50:58 09:55:11 66° 103° (ESE) 09:59:24 437.475
SO-50 06 May 09:51:25 09:56:07 43° 335° (NNW) 10:00:47 436.795
Oscar 11 06 May 09:52:59 09:55:58 18° 88° (E) 09:58:57 145.826/435.025
AUBIESAT-1 06 May 09:58:54 10:02:49 55° 299° (WNW) 10:06:26 437.475
NOAA 15 06 May 10:01:55 10:05:32 19° 312° (NW) 10:09:09 137.62
JAS-2 06 May 10:02:15 10:04:57 12° 23° (NNE) 10:07:43 435.910
ISS 06 May 10:04:24 10:07:30 40° 179° (S) 10:10:36 145.825
COMPASS 1 06 May 10:07:16 10:11:23 55° 100° (E) 10:15:29 437.405
FUNcube-1 06 May 10:10:08 10:13:21 21° 90° (E) 10:16:30 145.935
SEEDS 06 May 10:11:08 10:15:21 78° 103° (ESE) 10:19:34 437.485
DOVE 4 06 May 10:12:55 10:17:43 39° 298° (WNW) 10:22:17 437.250
AIST 1 06 May 10:14:21 10:17:27 18° 58° (ENE) 10:20:31
DUCHIFAT 1 06 May 10:16:49 10:19:23 16° 52° (NE) 10:21:55 145.980
Cubesat XI-IV 06 May 10:17:56 10:21:38 20° 312° (NW) 10:25:20 437.490
NOAA 18 06 May 10:18:02 10:21:39 18° 315° (NW) 10:25:17 137.9125
QB50P2 06 May 10:22:12 10:25:12 19° 55° (NE) 10:28:12 145.880/145.840
POLYITAN 1 06 May 10:24:23 10:27:25 19° 55° (NE) 10:30:26 437.675
POPSAT HIP 1 06 May 10:25:53 10:28:56 19° 55° (NE) 10:31:57 437.405
CINEMA 3 06 May 10:27:37 10:32:16 63° 291° (WNW) 10:36:41 145.822/145.860
QB50P1 06 May 10:28:35 10:31:43 20° 56° (NE) 10:34:52 145.935-145.965
AO-7 06 May 10:28:37 10:33:12 16° 351° (N) 10:37:48 29.400- 29.500
UNISAT 6 06 May 10:30:03 10:34:36 65° 70° (ENE) 10:39:05 437.425
PRISM 06 May 10:31:59 10:33:12 11° 276° (W) 10:34:24 437.425
UWE-3 06 May 10:32:23 10:36:32 45° 98° (E) 10:40:33 435.000/436.395/437.385
AAUSAT CUBESAT 2 06 May 10:34:12 10:38:23 81° 105° (ESE) 10:42:32 437.432
GOMX 1 06 May 10:37:03 10:40:59 21° 309° (NW) 10:44:50 467.674
BUGSAT 1 06 May 10:42:18 10:44:44 15° 52° (NE) 10:47:10 437.445
Cosmos 2491 06 May 10:44:15 10:50:35 21° 320° (NW) 10:56:56 435.465 / 435.565
HO-68 06 May 10:44:51 10:52:01 75° 294° (WNW) 10:59:09 435.675
TIGRISAT 06 May 10:46:09 10:50:45 84° 71° (ENE) 10:55:17 435.000
CUBEBUG 2 06 May 10:48:13 10:52:36 84° 103° (ESE) 10:56:50 437.445
Cosmos 2504 06 May 10:49:05 10:52:00 13° 293° (WNW) 10:54:59 435.465 / 435.565
Cosmos 2499 06 May 10:53:52 11:00:22 29° 55° (NE) 11:07:14 435.465 / 435.565
ZACube-1 06 May 10:54:05 10:58:14 51° 100° (E) 11:02:17 437.345
CANX-2 06 May 10:55:02 10:58:49 33° 297° (WNW) 11:02:37 2200.000
NANOSAT C BR1 06 May 11:00:16 11:04:04 32° 62° (ENE) 11:07:54 145.865
ANTELSAT 06 May 11:12:16 11:16:48 58° 259° (WSW) 11:21:16 437.575/2403.000
CUTE-I 06 May 11:14:24 11:15:03 10° 324° (NW) 11:15:40 437.470
DELFI C3 06 May 11:15:24 11:19:18 50° 100° (E) 11:23:12 145.870
M-CUBED/EXP-1 PRIME 06 May 11:19:19 11:21:28 14° 319° (NW) 11:23:32 437.505
HUMSAT D 06 May 11:23:06 11:26:45 30° 95° (E) 11:30:23 437.325/437.525
CUTE 1.7 + AOD 2 06 May 11:27:28 11:30:41 21° 302° (WNW) 11:33:54 437.475
Oscar 11 06 May 11:28:18 11:32:37 73° 289° (WNW) 11:36:55 145.826/435.025
SO-50 06 May 11:33:22 11:37:38 29° 359° (N) 11:41:51 436.795
AUBIESAT-1 06 May 11:34:48 11:36:30 12° 320° (NW) 11:38:08 437.475
GONETS M04 06 May 11:37:09 11:45:57 68° 72° (ENE) 11:54:37
ISS 06 May 11:40:42 11:43:34 28° 199° (SSW) 11:46:25 145.825
JAS-2 06 May 11:42:08 11:47:42 29° 48° (NE) 11:53:47 435.910
COMPASS 1 06 May 11:43:21 11:46:42 24° 301° (WNW) 11:50:05 437.405
FUNcube-1 06 May 11:45:50 11:50:00 59° 291° (WNW) 11:54:05 145.935
SEEDS 06 May 11:47:40 11:50:37 19° 304° (NW) 11:53:34 437.485
DUCHIFAT 1 06 May 11:50:11 11:54:27 80° 72° (ENE) 11:58:45 145.980
AIST 1 06 May 11:51:13 11:55:40 81° 260° (W) 12:00:05
DOVE 4 06 May 11:52:48 11:54:05 11° 320° (NW) 11:55:22 437.250
AO-85 06 May 11:54:38 11:57:51 16° 111° (ESE) 12:01:00 145.980
QB50P2 06 May 11:56:14 12:00:32 82° 255° (WSW) 12:04:51 145.880/145.840
POLYITAN 1 06 May 11:58:27 12:02:46 81° 257° (WSW) 12:07:05 437.675
AISAT 06 May 11:58:41 12:01:13 15° 86° (E) 12:03:43 437.250
POPSAT HIP 1 06 May 11:59:56 12:04:15 80° 257° (WSW) 12:08:34 437.405
QB50P1 06 May 12:02:47 12:07:05 75° 256° (WSW) 12:11:24 145.935-145.965
CINEMA 3 06 May 12:06:05 12:08:31 14° 312° (NW) 12:10:55 145.822/145.860
UNISAT 6 06 May 12:08:11 12:11:44 22° 269° (W) 12:15:15 437.425
UWE-3 06 May 12:09:11 12:12:52 28° 299° (WNW) 12:16:29 435.000/436.395/437.385
AAUSAT CUBESAT 2 06 May 12:10:34 12:13:24 18° 304° (NW) 12:16:14 437.432
BUGSAT 1 06 May 12:15:12 12:19:28 75° 71° (ENE) 12:23:45 437.445
AO-7 06 May 12:17:53 12:23:01 18° 18° (NNE) 12:28:09 29.400- 29.500
CUBEBUG 1 06 May 12:23:30 12:27:01 22° 91° (E) 12:30:31 437.445
TIGRISAT 06 May 12:25:01 12:28:01 17° 272° (W) 12:31:01 435.000
CUBEBUG 2 06 May 12:25:43 12:28:43 18° 306° (NW) 12:31:38 437.445
ZACube-1 06 May 12:30:48 12:34:19 26° 300° (WNW) 12:37:46 437.345
ESTCUBE 1 06 May 12:32:37 12:36:47 34° 95° (E) 12:40:57 437.505/2401.250
HO-68 06 May 12:33:11 12:38:48 26° 317° (NW) 12:44:25 435.675
NANOSAT C BR1 06 May 12:35:43 12:39:46 40° 262° (W) 12:43:50 145.865
Oscar 19 06 May 12:35:56 12:40:26 31° 57° (ENE) 12:44:57 437.125/150
UKube-1 06 May 12:43:24 12:46:58 24° 93° (E) 12:50:31 .
DX 1 06 May 12:44:18 12:48:09 29° 94° (E) 12:51:59 434.975-435.025
Cosmos 2499 06 May 12:46:49 12:54:30 89° 259° (W) 13:02:49 435.465 / 435.565
Cosmos 2491 06 May 12:50:04 12:52:13 11° 353° (N) 12:54:22 435.465 / 435.565
DELFI C3 06 May 12:50:43 12:53:59 24° 300° (WNW) 12:57:15 145.870
HUMSAT D 06 May 12:58:41 13:02:30 38° 295° (WNW) 13:06:17 437.325/437.525
VELOX 1 06 May 13:01:14 13:05:33 44° 99° (E) 13:09:49 145.980
Gurwin Techsat 1B 06 May 13:03:06 13:07:25 26° 54° (NE) 13:11:46 435.225
Oscar 11 06 May 13:05:42 13:08:05 15° 309° (NW) 13:10:28 145.826/435.025
SPROUT 06 May 13:05:42 13:09:12 23° 91° (E) 13:12:40 437.525
50 SAT 06 May 13:12:38 13:16:17 64° 103° (ESE) 13:19:56 437.505
SO-50 06 May 13:14:37 13:19:13 40° 23° (NNE) 13:23:40 436.795
ISS 06 May 13:19:02 13:19:15 10° 217° (SW) 13:19:26 145.825
FUNcube-1 06 May 13:23:49 13:25:26 12° 311° (NW) 13:27:03 145.935
JAS-2 06 May 13:25:25 13:31:54 88° 72° (ENE) 13:39:17 435.910
TISAT 1 06 May 13:25:36 13:27:38 13° 85° (E) 13:29:40 437.305
DUCHIFAT 1 06 May 13:27:58 13:30:43 16° 272° (W) 13:33:28 145.980
AIST 1 06 May 13:30:29 13:32:32 13° 280° (W) 13:34:34
AO-85 06 May 13:32:07 13:37:31 62° 131° (SE) 13:42:45 145.980
AISAT 06 May 13:33:53 13:38:25 85° 108° (ESE) 13:42:54 437.250
GONETS M04 06 May 13:34:28 13:42:20 39° 277° (W) 13:50:09
QB50P2 06 May 13:34:59 13:37:04 13° 275° (W) 13:39:09 145.880/145.840
POLYITAN 1 06 May 13:37:15 13:39:18 13° 275° (W) 13:41:20 437.675
POPSAT HIP 1 06 May 13:38:46 13:40:46 13° 275° (W) 13:42:47 437.405
QB50P1 06 May 13:41:56 13:43:39 12° 276° (W) 13:45:23 145.935-145.965
BUGSAT 1 06 May 13:52:28 13:55:22 18° 272° (W) 13:58:16 437.445
CUBEBUG 1 06 May 13:59:17 14:03:42 61° 291° (WNW) 14:08:04 437.445
ITAMSAT 1 06 May 14:03:17 14:07:53 33° 58° (ENE) 14:12:29 435.822/435.867
AO-7 06 May 14:06:19 14:13:37 36° 44° (NE) 14:20:57 29.400- 29.500
ESTCUBE 1 06 May 14:09:26 14:13:42 41° 296° (WNW) 14:17:58 437.505/2401.250
Oscar 19 06 May 14:14:22 14:19:31 60° 258° (WSW) 14:24:42 437.125/150
UKube-1 06 May 14:19:03 14:23:20 55° 292° (WNW) 14:27:35 .
DX 1 06 May 14:20:19 14:24:33 47° 294° (WNW) 14:28:45 434.975-435.025
BEESAT 06 May 14:21:11 14:22:39 11° 82° (E) 14:24:06 436.000
HO-68 06 May 14:21:48 14:24:14 12° 343° (NNW) 14:26:41 435.675
PCSat 06 May 14:32:21 14:33:56 11° 102° (ESE) 14:35:30 145.827
VELOX 1 06 May 14:37:56 14:41:57 32° 299° (WNW) 14:45:55 145.980
Cosmos 2499 06 May 14:40:44 14:46:47 26° 281° (WNW) 14:53:10 435.465 / 435.565
SPROUT 06 May 14:41:15 14:45:29 55° 291° (WNW) 14:49:40 437.525
Gurwin Techsat 1B 06 May 14:41:37 14:46:57 77° 255° (WSW) 14:52:19 435.225
O/OREOS (USA 219) 06 May 14:45:12 14:49:11 30° 108° (ESE) 14:53:10 437.305
50 SAT 06 May 14:47:12 14:49:43 18° 302° (WNW) 14:52:15 437.505
Cosmos 2491 06 May 14:49:32 14:54:23 15° 28° (NNE) 14:59:12 435.465 / 435.565
CUSAT 1 06 May 14:52:04 14:55:45 26° 84° (E) 15:00:20 437.405
SO-50 06 May 14:55:15 15:00:04 74° 226° (SW) 15:04:44 436.795
TISAT 1 06 May 14:59:45 15:04:01 83° 105° (ESE) 15:08:14 437.305
AISAT 06 May 15:11:12 15:14:24 19° 306° (NW) 15:17:34 437.250
JAS-2 06 May 15:12:44 15:18:00 25° 276° (W) 15:23:48 435.910
AO-85 06 May 15:13:02 15:18:18 48° 332° (NNW) 15:23:19 145.980
ITUPSAT 1 06 May 15:17:02 15:21:17 30° 94° (E) 15:25:30 437.325
SWISSCUBE 06 May 15:24:06 15:28:33 37° 97° (E) 15:32:59 437.505
CUBEBUG 1 06 May 15:37:01 15:39:11 14° 311° (NW) 15:41:21 437.445
ITAMSAT 1 06 May 15:42:07 15:47:12 54° 259° (W) 15:52:18 435.822/435.867
HORYU 2 06 May 15:50:37 15:54:14 25° 57° (ENE) 15:57:51 437.375
BEESAT 06 May 15:56:41 16:01:26 62° 103° (ESE) 16:06:10 436.000
UKube-1 06 May 15:56:48 15:58:32 12° 313° (NW) 16:00:15 .
AO-7 06 May 15:57:26 16:05:46 86° 248° (WSW) 16:14:09 29.400- 29.500
Oscar 19 06 May 15:58:00 15:59:58 12° 279° (W) 16:01:56 437.125/150
DX 1 06 May 15:58:39 15:59:47 11° 315° (NW) 16:00:55 434.975-435.025
CUTE-I 06 May 16:06:09 16:07:37 11° 38° (NE) 16:09:04 437.470
HO-68 06 May 16:07:48 16:09:00 10° 9° (N) 16:10:13 435.675
PCSat 06 May 16:10:54 16:16:09 51° 122° (ESE) 16:21:25 145.827
BRITE-PL 06 May 16:12:10 16:13:39 11° 38° (NE) 16:15:09 437.365/2234.400
DANDE 06 May 16:12:18 16:15:44 49° 95° (E) 16:20:16 436.750
SPROUT 06 May 16:18:59 16:20:35 12° 312° (NW) 16:22:11 437.525
O/OREOS (USA 219) 06 May 16:23:54 16:28:24 53° 309° (NW) 16:32:55 437.305
Gurwin Techsat 1B 06 May 16:24:38 16:27:50 16° 276° (W) 16:31:01 435.225
NOAA 15 06 May 16:31:46 16:35:28 20° 48° (NE) 16:39:10 137.62
CUSAT 1 06 May 16:33:03 16:37:21 56° 293° (WNW) 16:43:07 437.405
TISAT 1 06 May 16:36:16 16:39:11 18° 306° (NW) 16:42:05 437.305
SO-50 06 May 16:36:48 16:39:50 17° 247° (WSW) 16:42:47 436.795
Cosmos 2491 06 May 16:46:23 16:54:33 39° 58° (ENE) 17:02:38 435.465 / 435.565
Cubesat XI-IV 06 May 16:49:04 16:52:43 19° 48° (NE) 16:56:20 437.490
NOAA 18 06 May 16:50:53 16:55:16 25° 51° (NE) 16:59:37 137.9125
LilacSat-2 06 May 16:52:31 16:52:55 10° 50° (NE) 16:53:19 437.200
KKS-1 06 May 16:53:34 16:57:45 36° 97° (E) 17:01:52 437.445
ITUPSAT 1 06 May 16:54:44 16:59:21 50° 294° (WNW) 17:03:58 437.325
AO-85 06 May 16:55:07 16:59:50 30° 355° (N) 17:04:17 145.980
STARS 06 May 16:59:00 17:02:38 24° 92° (E) 17:06:14 437.465
GOMX 1 06 May 17:00:52 17:03:31 14° 43° (NE) 17:06:11 467.674
SWISSCUBE 06 May 17:01:57 17:06:25 41° 297° (WNW) 17:10:53 437.505
YUBILEINY 06 May 17:11:23 17:15:49 15° 65° (ENE) 17:20:14 435.215
HORYU 2 06 May 17:26:05 17:30:31 62° 257° (WSW) 17:34:57 437.375
ITAMSAT 1 06 May 17:26:57 17:27:53 10° 280° (W) 17:28:49 435.822/435.867
MOZHAYETS 4 06 May 17:27:14 17:31:44 52° 100° (E) 17:36:12
M-CUBED/EXP-1 PRIME 06 May 17:29:06 17:32:23 20° 47° (NE) 17:35:35 437.505
BEESAT 06 May 17:34:58 17:38:57 27° 303° (WNW) 17:42:54 436.000
CUTE-I 06 May 17:41:29 17:46:21 38° 60° (ENE) 17:51:13 437.470
AUBIESAT-1 06 May 17:43:51 17:47:13 21° 49° (NE) 17:50:28 437.475
BRITE-PL 06 May 17:45:55 17:50:39 37° 60° (ENE) 17:55:42 437.365/2234.400
CUBESAT XI-V 06 May 17:47:50 17:50:37 15° 85° (E) 17:53:23 437.345
HO-68 06 May 17:49:21 17:54:09 20° 35° (NE) 17:58:57 435.675
AO-7 06 May 17:53:02 17:59:45 27° 271° (W) 18:06:32 29.400- 29.500
PCSat 06 May 17:54:23 17:59:40 49° 325° (NW) 18:04:58 145.827
DANDE 06 May 17:55:56 17:59:05 24° 306° (NW) 18:03:01 436.750
BEESAT 3 06 May 17:57:36 17:59:58 15° 116° (ESE) 18:02:20 437.485
O/OREOS (USA 219) 06 May 18:05:47 18:08:50 17° 332° (NNW) 18:11:54 437.305
